TimeMDT,TemperatureF,Dew PointF,Humidity,Sea Level PressureIn,VisibilityMPH,Wind Direction,Wind SpeedMPH,Gust SpeedMPH,PrecipitationIn,Events,Conditions,WindDirDegrees,DateUTC
12:53 AM,37.0,28.0,70,30.17,10.0,SSW,12.7,-,N/A,,Clear,200,2013-10-27 06:53:00
1:53 AM,37.0,28.9,73,30.14,10.0,South,11.5,-,N/A,,Clear,180,2013-10-27 07:53:00
2:53 AM,36.0,28.0,73,30.13,10.0,SW,4.6,-,N/A,,Clear,220,2013-10-27 08:53:00
3:53 AM,36.0,28.0,73,30.11,10.0,North,3.5,-,N/A,,Clear,350,2013-10-27 09:53:00
4:53 AM,36.0,27.0,70,30.10,10.0,Calm,Calm,-,N/A,,Clear,0,2013-10-27 10:53:00
5:53 AM,37.0,28.0,70,30.09,10.0,Calm,Calm,-,N/A,,Clear,0,2013-10-27 11:53:00
6:53 AM,37.0,27.0,67,30.12,10.0,NNW,4.6,-,N/A,,Clear,330,2013-10-27 12:53:00
7:53 AM,37.0,27.0,67,30.12,10.0,WNW,5.8,-,N/A,,Clear,290,2013-10-27 13:53:00
8:53 AM,46.9,28.9,50,30.09,10.0,Calm,Calm,-,N/A,,Clear,0,2013-10-27 14:53:00
9:53 AM,53.1,27.0,37,30.06,10.0,Calm,Calm,-,N/A,,Clear,0,2013-10-27 15:53:00
10:53 AM,55.9,30.0,37,30.02,10.0,South,5.8,-,N/A,,Clear,180,2013-10-27 16:53:00
11:53 AM,60.1,25.0,26,29.98,10.0,Variable,3.5,-,N/A,,Clear,0,2013-10-27 17:53:00
12:53 PM,62.1,27.0,26,29.93,10.0,Calm,Calm,-,N/A,,Clear,0,2013-10-27 18:53:00
1:53 PM,64.9,28.9,26,29.87,10.0,SW,13.8,21.9,N/A,,Clear,230,2013-10-27 19:53:00
2:53 PM,64.9,28.0,25,29.84,10.0,SW,12.7,-,N/A,,Clear,220,2013-10-27 20:53:00
3:53 PM,63.0,28.0,27,29.83,10.0,SW,21.9,-,N/A,,Clear,230,2013-10-27 21:53:00
4:53 PM,62.1,28.9,29,29.83,10.0,SW,20.7,-,N/A,,Clear,230,2013-10-27 22:53:00
5:53 PM,55.9,28.0,34,29.85,10.0,SW,17.3,-,N/A,,Clear,230,2013-10-27 23:53:00
6:53 PM,52.0,27.0,38,29.88,10.0,SW,13.8,-,N/A,,Clear,230,2013-10-28 00:53:00
7:53 PM,50.0,28.0,43,29.90,10.0,SW,13.8,-,N/A,,Clear,230,2013-10-28 01:53:00
8:53 PM,48.9,28.0,44,29.87,10.0,SW,12.7,-,N/A,,Clear,220,2013-10-28 02:53:00
9:53 PM,44.1,27.0,51,29.87,10.0,SSW,10.4,-,N/A,,Clear,200,2013-10-28 03:53:00
10:53 PM,45.0,28.9,53,29.85,10.0,SSW,11.5,-,N/A,,Clear,200,2013-10-28 04:53:00
11:53 PM,46.0,30.0,54,29.81,10.0,SSW,11.5,-,N/A,,Clear,200,2013-10-28 05:53:00